Malaysia Virtual Airlines Airport Information Service

Tokyo International Airport

ICAO: RJTT Country: Japan
Latitude: 35.5523 Longitude: 139.78
Latest Arrival : MC82 (WBKK-RJTT) Latest Departure : MC85 (RJTT-WBKK)


WX CaptureLIVE
Data provided by noaa.gov | Fetched at 15:26:24

METAR : RJTT 261504Z 02018G28KT 9999 -SHRA FEW015 BKN050 BKN070 26/21 Q1000 RMK 1CU015 5SC050 7AC070 A2953

TAF : RJTT 261108Z 2612/2718 34014KT 7000 -SHRA FEW008 BKN020 TEMPO 2618/2703 3000 SHRA BR BECMG 2703/2706 20016KT


Runway Data for RJTT
Data provided by openaviationdata.com

Runway ID Mag Var Hdg Length Elevation Surface ILS Freq ILS Id ILS Slope
4 -7 41° 8208 ft 21 ft Asphalt -- -- --
16L -7 156° 9851 ft 21 ft Asphalt -- -- --
16R -7 156° 9851 ft 21 ft Asphalt -- -- --
22 -7 221° 8208 ft 21 ft Asphalt 108.1 IAD 3
34L -7 336° 9851 ft 21 ft Asphalt 111.7 IHA 3
34R -7 336° 9851 ft 21 ft Asphalt 108.9 ITC 3

Tokyo International Airport, Japan
Use only for reference purposes



Not for navigational purposes.